SL-16 DEB, 39857

Orbit data source: Space-Track

SL-16 DEB, 39857 is space debris in LEO originally from a launch on Fri, 25 Dec 1992 UTC launched from the Tyuratam Missile And Space Complex (TTMTR). Debris objects in space refer to the collection of defunct objects orbiting the Earth. Examples of debris include non-operational satellites, rocket bodies, and fragments generated from explosions, collisions, or faulty payload assembly.

Loading next visibility...
Identifier
39857, 1992-093LK
Orbit
LEO
Country
Flag of CISCIS
Related business
Manufacturer
Unknown
Mission
Spacecraft
Bus & Motor
Unknown
Mass
Unknown
Launch date (UTC)
1992-12-25 (33 years ago)
Launch vehicle
Unknown
Launch site
Tyuratam Missile And Space Complex (TTMTR)
Object type
Payload
Rocket body
Debris
Shape & HBR
Unknown shape, 0.1 m
Radar Cross Section
Small (<0.1 m²)

Expand to show TLE details & history
Last TLE update: 2 days ago

TLE from 2 days ago
0 SL-16 DEB
1 39857U 92093LK  26131.57130039  .00000949  00000-0  40973-3 0  9994
2 39857  70.9192 248.4117 0058712 274.8876  84.5550 14.26166721617832
Epoch: 2026-05-11T13:42Z
TLE epoch observation values (Epoch: 2026-05-11T13:42:40.353Z)
Latitude
-0.00005°
Longitude
173.38543°
Altitude
803.224 km
Speed
7.454 km/s
True Right ascension
16h 33m 38s
True Declination
0° 00' 00"
Sunlit
Object was in full shadow at epoch
Visualization orbit readout
Latitude
Unknown
Longitude
Unknown
Altitude
Unknown
Speed
Unknown
Apparent Right ascension
Unknown
Apparent Declination
Unknown
Sunlit
N/A
Visualization observer readout
Local Sidereal Time
04:57:26
Azimuth
Unknown
Elevation
Unknown
Doppler factor
Unknown
Orbital elements
Apogee altitude
844.653 km
Perigee altitude
760.336 km
Semi-major axis
7,180.631 km
Eccentricity
0.00587
Inclination
70.9192°
RAAN
248.4117°
Arg. of periapsis
274.8876°
True anomaly
85.22521°
Mean anomaly
84.555°
Eccentric anomaly
84.89006°
Mean motion
3.56697 °/min
Orbital period
100.93 mins
BSTAR
0.00040973
Loading maneuver chart data...
Computing Atmospheric mass density...
Loading historical data...
Loading historical data...
Loading historical data...
Loading historical data...
Loading historical data...
Loading historical data...
Loading historical data...

Documentation

Showing up to 5 results
|